Location: Kaikalui
(16.5250°N, 81.1500°E)
Time: 23:01:55
(UTC+00:00)

Tiangong - Pass Details

Date: 14 April 2026
Orbit: 374 x 381 km, 41.5° (Epoch: 9 May)

Event Time Altitude Azimuth Distance (km) Brightness Sun altitude
Rises 14:49:45 0° 313° (NW) 2,222 2.7 -28.3°
Reaches altitude 10° 14:51:49 10° 316° (NW) 1,370 1.4 -28.8°
Enters shadow 14:52:02 12° 317° (NW) 1,285 1.2 -28.9°
